070225 670  0.0   0.1+    070328 379  0.2+  0.0     070401 H45  0.3+  0.4-  

070225 670  0.2+  0.2+    070328 379  0.1-  0.0     070401 H45  0.2-  1.3-  

070225 670  0.6+  0.2-    070328 379  0.2+  0.4+    070401 H45  0.0   1.2-  

070225 670  0.6+  0.2+    070328 379  0.3+  0.2+                            

◎2006 VV2の軌道と予報位置    [From JSGA Web News No. 105]



JSGA Web News No. 105                                             2007 Mar. 29



アポロ型特異小惑星 2006 VV2の改良軌道と予報位置C

 洲本での3月29日朝JSTの観測によると,この小惑星は12.0等まで明るくなっている.

すでにMP News Nos. 90, 92, 103で紹介してきたが,最接近時(3月31日夕刻JST)に

は,地球に 0.022 AUまで接近して,小惑星は10.0等まで明るくなる.最接近時,その

予報位置は,No. 103(天文ガイド4月号p.139)にある予報から約30"ほどずれる.観

測には,支障はないが,軌道を次のように改良した.なお,位置予報は,洲本からのも

のであるが,我が国全域で使用できる.10等級まで明るくなる特異小惑星は,一年に

1個ほどしかない.ぜひ,一度,観測して欲しい.

 

2006 VV2 

Epoch 2007 Apr. 10.0 TT = JDT 2454200.5                 Nakano

M   9.67397              (2000.0)            P               Q

n   0.26652064     Peri.  144.91466     -0.89763575     -0.43515000

a   2.3913813      Node    10.05030     +0.25303854     -0.63878843

e   0.6029924      Incl.   23.63402     +0.36086223     -0.63450282

P   3.70           H   16.7           G   0.15           U   1

Residuals in seconds of arc 

021004 644  0.6-  0.1+    061216 H45  0.2+  0.0     070325 B30  0.2-  0.2+  

021004 644  0.5-  0.1+    061217 H45  0.1+  0.3-    070325 B30  0.2-  0.3+  

021004 644  0.8-  0.6+    061217 H45  0.1+  0.2-    070325 B30  0.1-  0.1+  

021028 644  0.6-  1.0+    061217 H45  0.0   0.0     070325 B30  0.1-  0.3+  

021030 644  0.7-  0.9+    061217 H45  0.6+  0.6+    070325 B30  0.1-  0.1+  

021030 644  0.6-  0.3+    061217 H45  0.1-  0.3+    070325 H45  0.1+  0.1+  

021030 644  0.2-  0.2+    061217 H45  0.0   0.3+    070325 H45  0.2+  0.3+  

061111 704 (1.5-  2.0+)   061223 H45  0.3+  0.2-    070325 H45  0.2+  0.4+  

061111 704  1.8-  1.7+    061223 H45  0.3+  0.0     070325 H45  0.0   0.2+  

061111 704  1.3-  1.2+    061223 H45  0.2+  0.1-    070325 H45  0.1-  0.3+  

061111 704  1.3-  1.6+    061223 H45  0.0   0.0     070325 H45  0.1-  0.4+  

061111 704 (3.0-  0.1+)   061223 H45  0.3+  0.1+    070325 H45  0.1+  0.5+  

061111 204  0.3-  0.0     061223 H45  0.1+  0.1+    070325 H45  0.1+  0.5+  

061111 204  0.1-  0.1-    061223 H45  0.2+  0.2+    070325 379  0.1-  0.3+  

061111 204  0.1-  0.0     061227 H45  0.1+  0.2-    070325 379  0.2+  0.3+  

061111 176  0.3-  0.2+    061227 H45  0.3+  0.1-    070325 379  0.0   0.2+  

061111 176  0.2-  0.2+    061227 H45  0.1+  0.2+    070325 379  0.1-  0.1-  

061111 176  0.1-  0.1-    061227 H45  0.1+  0.0     070325 379  0.2-  0.0   

061111 176  0.3-  0.2-    061227 H45  0.1+  0.0     070325 379  0.1+  0.0   

061111 176  0.1+  0.1-    061227 H45  0.1+  0.0     070325 379  0.2-  0.2+  

061112 939  0.1-  0.1-    061227 H45  0.1+  0.1+    070325 379  0.2-  0.0   

061112 939  0.4+  0.3+    070102 H45  0.4+  0.1-    070325 379  0.0   0.1+  

061112 H36  1.4+  1.1-    070102 H45  0.2+  0.1+    070325 379  0.1-  0.0   

061112 H36  1.0-  0.5+    070102 H45  0.0   0.0     070325 379  0.1-  0.1-  

061112 703  0.2-  0.1+    070102 H45  0.3+  0.1-    070325 379  0.1-  0.1+  

061112 703  0.1-  0.3+    070102 H45  0.3+  0.0     070325 557  0.0   0.1-  

061112 854  0.1-  0.6-    070102 H45  0.5+  0.1+    070325 557  0.2+  0.0   

061112 854  0.4-  0.3+    070102 H45  0.3+  0.3+    070325 557  0.1+  0.0   

061112 854  0.1-  0.3-    070102 H98  0.2+  0.1-    070325 557  0.2+  0.0   

061112 D35  1.2-  0.9+    070102 H98  0.6+  0.2+    070325 557  0.2+  0.1-  

061112 D35  1.2-  0.7+    070102 H98  0.5+  0.2+    070325 557  0.2+  0.1-  

061112 D35  1.2-  0.8+    070103 H98  0.3-  0.1-    070325 557  0.2+  0.2-  

061112 300  0.2+  0.2+    070103 H98  0.1+  0.1-    070325 557  0.2+  0.1-  

061112 300  0.1+  0.1+    070103 H45  0.3+  0.1+    070325 557  0.1+  0.1-  

061112 300  0.3-  0.3+    070103 H45  0.1+  0.1+    070325 557  0.3+  0.2+  

061112 300  0.1-  0.3+    070103 H45  0.4+  0.1+    070325 557  0.3+  0.1+  

061112 130  0.4-  0.5-    070103 H45  0.2+  0.2+    070325 557  0.1+  0.1-  

061112 130  0.3-  0.1-    070103 H45  0.4+  0.2+    070325 557  0.2+  0.1-  

061112 130  1.2-  0.4-    070103 H45  0.6+  0.3+    070325 557  0.3+  0.1-  

061113 850  0.8+  0.4+    070107 H45  0.3+  0.1+    070325 557  0.3+  0.1-  

061113 850  0.0   0.3+    070107 H45  0.2+  0.1+    070325 557  0.3+  0.1+  

061113 850  0.9-  0.7+    070107 H45  0.3+  0.2+    070325 557  0.1+  0.2-  

061113 673  0.2-  0.1+    070107 H45  0.2+  0.1+    070325 J95  0.2-  0.1+  

061113 673  0.2-  0.0     070107 H45  0.4+  0.1-    070325 J95  0.3-  0.1+  

061113 673  0.2-  0.1+    070107 H45  0.3+  0.1-    070325 557  0.2+  0.0   

061113 673  0.1-  0.1+    070107 704  0.9+  0.5-    070325 J95  0.2-  0.2+  

061114 704  1.0-  1.4+    070107 704  0.1+  0.2+    070325 J95  0.3-  0.2+  

061114 704  0.7+  0.3+    070107 704  0.1-  0.1-    070325 557  0.1+  0.1-  

061114 704  0.4-  0.7+    070107 704  0.4+  0.3-    070325 557  0.3+  0.0   

061116 J95  0.2-  0.1+    070107 704  1.3+  1.8-    070326 557  0.1+  0.1-  

061116 J95  0.1-  0.2+    070108 H45  0.6+  0.1-    070326 557  0.2+  0.1-  

061116 J95  0.3-  0.3+    070108 H45  0.1+  0.2-    070326 557  0.1-  0.2-  

061117 176  0.2-  0.2+    070108 H45  0.2+  0.2-    070326 557  0.1+  0.0   

061117 176  0.0   0.1-    070108 H45  0.4+  0.2-    070326 557  0.2+  0.0   

061117 176  0.0   0.0     070108 H45  0.3+  0.0     070326 557  0.1+  0.0   

061117 176  0.1-  0.2-    070108 H45  0.3+  0.2-    070326 557  0.2+  0.0   

061117 176  0.1-  0.2+    070109 H45  0.4+  0.1-    070326 557  0.1+  0.1-  

061118 H98  0.3+  0.8+    070109 H45  0.4+  0.1+    070326 557  0.3+  0.1+  

061118 H98  0.0   0.0     070109 H45  0.5+  0.0     070326 557  0.1+  0.1-  

061118 H98  0.6-  0.1-    070109 H45  0.4+  0.0     070326 557  0.2+  0.1-  

061118 G88  0.8-  0.8+    070109 H45  0.3+  0.0     070326 557  0.1+  0.1-  

061118 G88  0.2-  0.1-    070109 H45  0.4+  0.1+    070326 557  0.2+  0.0   

061118 G88  0.3-  0.6+    070110 H45  0.5+  0.4+    070326 557  0.3+  0.1-  

061118 H45  0.1-  0.2+    070110 H45  0.1+  0.1+    070326 B30  0.0   0.2-  

061118 H45  0.1-  0.1-    070110 H45  0.2+  0.0     070326 B30  0.3-  0.0   

061118 H45  0.2-  0.2+    070110 H45  0.1+  0.0     070326 B30  0.4-  0.1-  

061118 H45  0.3-  0.2+    070110 H45  0.1+  0.1+    070326 B30  0.2+  0.0   

061118 H45  0.3-  0.0     070110 H45  0.2+  0.0     070326 B30  0.3+  0.1+  

061118 H45  0.2-  0.1+    070111 H45  0.2+  0.0     070326 B30  0.5-  0.2-  

061118 H45  0.3-  0.2+    070111 H45  0.2+  0.2-    070326 B30  0.2+  0.0   

061118 H45  0.2-  0.1+    070111 H45  0.2+  0.1-    070326 B30  0.2-  0.0   

061118 H45  0.1-  0.2+    070111 H45  0.2+  0.0     070326 B30  0.3+  0.1-  

061119 H45  0.3-  0.0     070111 H45  0.3+  0.2+    070326 B30  0.1+  0.0   

061119 H45  0.1-  0.2+    070111 H45  0.1+  0.2+    070326 B30  0.6+  0.3+  

061119 H45  0.0   0.1+    070123 H45  0.2+  0.2-    070326 B30  0.1-  0.0   

061119 H45  0.2-  0.1+    070123 H45  0.4+  0.1+    070326 B30  0.0   0.2-  

061119 H45  0.1-  0.1-    070123 H45  0.2+  0.0     070326 B30  0.9-  0.4-  

061119 H45  0.3-  0.1-    070123 H45  0.3+  0.1-    070326 B30  0.5-  0.1-  

061119 H45  0.2-  0.1+    070123 H45  0.2+  0.1-    070326 B30  0.0   0.2+  

061119 H45  0.4-  0.1+    070123 H45  0.2+  0.3+    070326 B30  0.1-  0.0   

061119 H45  0.1-  0.2+    070129 B28  0.8+  1.0+    070326 B30  0.1+  0.1+  

061119 H45  0.1-  0.1+    070225 673  0.3+  0.0     070326 B30  0.2-  0.1-  

061120 H45  0.2-  0.0     070225 673  0.1+  0.1+    070326 B30  0.2+  0.0   

061120 H45  0.0   0.2+    070225 670  0.0   0.0     070326 379  0.5-  0.1+  

061120 H45  0.3-  0.1-    070225 670  0.2+  0.1+    070326 379  0.4-  0.2+  

061120 H45  0.3-  0.1+    070225 670  0.6+  0.2-    070326 379  0.4-  0.2+  

061120 H45  0.0   0.1-    070225 670  0.6+  0.2+    070326 379  0.3-  0.4+  

061120 H45  0.2-  0.4+    070308 H98  0.3+  0.0     070326 379  0.3-  0.2+  

061122 H45  0.0   0.0     070308 H98  0.1+  0.7+    070326 379  0.1+  0.2+  

061122 H45  0.1-  0.1+    070308 H98  0.1+  0.0     070326 379  0.3-  0.2+  

061122 H45  0.2-  0.2+    070312 B30  0.1-  0.3+    070326 379  0.1+  0.3+  

061122 H45  0.1-  0.1-    070312 B30  0.0   0.2+    070326 379  0.5-  0.2+  

061122 H45  0.1-  0.0     070312 B30  0.4-  0.0     070326 379  0.4-  0.2+  

061122 H45  0.0   0.1+    070312 B30  0.1-  0.3+    070326 379  0.5-  0.3+  

061122 H45  0.1-  0.1+    070312 118  0.4+  0.3+    070326 379  0.1-  0.3+  

061122 H45  0.1-  0.2+    070312 118  0.5+  0.3+    070326 379  0.2-  0.1-  

061123 151  0.8-  0.3+    070312 118  0.4+  0.4+    070326 379  0.2-  0.4+  

061123 151  0.8-  0.4+    070312 118  0.4+  0.5+    070326 379  0.1-  0.3+  

061123 151  0.7-  0.4+    070313 118  0.5+  0.3+    070326 379  0.1-  0.3+  

061125 H45  0.3+  0.2+    070313 118  0.4+  0.2+    070326 379  0.2-  0.2+  

061125 H45  0.1-  0.1+    070313 118  0.4+  0.3+    070326 379  0.4-  0.3+  

061125 H45  0.3+  0.1+    070313 118  0.4+  0.3+    070326 379  0.1-  0.2+  

061125 H45  0.1-  0.1+    070313 J69  0.4+  0.2-    070326 379  0.1-  0.2+  

061125 H45  0.1-  0.1+    070313 J69  0.0   0.4-    070326 379  0.1-  0.1+  

061125 H45  0.1-  0.1+    070313 J69  0.4+  0.5-    070326 379  0.0   0.3+  

061126 H45  0.3+  0.2+    070313 J69  0.0   0.5-    070326 379  0.1+  0.2+  

061126 H45  0.2+  0.1-    070313 J69  0.1+  0.5-    070326 379  0.4-  0.0   

061126 H45  0.2+  0.2+    070316 118  0.1+  0.2+    070326 240  0.4-  0.2+  

061126 H45  0.1+  0.0     070316 118  0.0   0.1+    070326 240  0.4-  0.3+  

061126 H45  0.1+  0.0     070316 118  0.1+  0.3+    070326 240  0.4-  0.1+  

061126 H45  0.2+  0.1+    070316 118  0.1+  0.2+    070326 240  0.3-  0.1+  

061126 H45  0.2+  0.0     070316 118  0.2+  0.2+    070326 240  0.3-  0.2+  

